CW6666 Weather Reports


Display with metric or nautical units.
time (UTC)temp
F
wind
direction
speed
MPH
gust
MPH
rain 1hr
in
rain 24hr
in
rain mn
in
humidity
%
barometer
mb
20150130122056 81 30 12.0 17.0 0.00 0.00 0.00 87 1009.0
20150130121555 81 57 12.0 12.0 0.00 0.00 0.00 87 1009.0
20150130121055 81 73 11.0 12.0 0.00 0.00 0.00 87 1009.0
20150130120555 81 81 9.0 12.0 0.00 0.00 0.00 86 1009.0
20150130120055 81 96 6.0 14.0 0.00 0.00 0.00 86 1009.0
20150130115555 81 80 9.0 15.0 0.00 0.00 0.00 85 1009.1
20150130115055 82 53 10.0 16.0 0.00 0.00 0.00 86 1009.1
20150130114555 82 39 14.0 16.0 0.00 0.00 0.00 86 1009.1
20150130114055 81 49 14.0 14.0 0.00 0.00 0.00 86 1009.1
20150130113554 82 28 5.0 14.0 0.00 0.00 0.00 86 1009.1
20150130113054 82 28 10.0 15.0 0.00 0.00 0.00 86 1009.1
20150130112554 82 73 9.0 16.0 0.00 0.00 0.00 85 1009.1
20150130112054 82 51 13.0 17.0 0.00 0.00 0.00 85 1009.1
20150130111554 79 49 16.0 17.0 0.00 0.00 0.00 85 1009.1
20150130111053 82 55 14.0 17.0 0.00 0.00 0.00 85 1008.9
20150130110553 82 53 14.0 16.0 0.00 0.00 0.00 86 1008.9
20150130110124 81 46 13.0 16.0 0.00 0.00 0.00 86 1008.9
20150130105554 81 61 16.0 16.0 0.00 0.00 0.00 86 1008.8
20150130105053 81 32 10.0 16.0 0.00 0.00 0.00 87 1008.8
20150130104553 81 42 10.0 16.0 0.00 0.00 0.00 87 1008.8
20150130104052 81 37 12.0 16.0 0.00 0.00 0.00 87 1008.9
20150130103552 81 34 13.0 16.0 0.00 0.00 0.00 87 1008.9
20150130103053 81 41 12.0 17.0 0.00 0.00 0.00 87 1008.9
20150130102552 81 44 11.0 17.0 0.00 0.00 0.00 86 1008.7
20150130102052 81 28 12.0 16.0 0.00 0.00 0.00 87 1008.7
20150130101553 81 44 12.0 15.0 0.00 0.00 0.00 87 1008.7
20150130101052 81 42 7.0 14.0 0.00 0.00 0.00 87 1008.7
20150130100551 81 28 9.0 15.0 0.00 0.00 0.00 87 1008.7
20150130100121 78 34 9.0 16.0 0.00 0.00 0.00 86 1008.6
20150130095551 78 20 11.0 17.0 0.00 0.00 0.00 86 1008.3
20150130095051 78 27 15.0 17.0 0.00 0.00 0.00 86 1008.3
20150130094551 78 29 8.0 15.0 0.00 0.00 0.00 86 1008.3
20150130094051 78 28 7.0 19.0 0.00 0.00 0.00 85 1008.1
20150130093551 79 21 11.0 19.0 0.00 0.00 0.00 85 1008.1
20150130093050 79 42 15.0 17.0 0.00 0.00 0.00 85 1008.1
20150130092551 79 33 11.0 15.0 0.00 0.00 0.00 84 1008.0
20150130092050 79 26 9.0 15.0 0.00 0.00 0.00 85 1008.0
20150130091550 79 15 9.0 12.0 0.00 0.00 0.00 85 1008.0
20150130091050 79 26 7.0 15.0 0.00 0.00 0.00 85 1007.9
20150130090550 79 19 11.0 16.0 0.00 0.00 0.00 85 1007.9
20150130090120 79 34 12.0 16.0 0.00 0.00 0.00 85 1007.9
20150130085549 79 27 14.0 17.0 0.00 0.00 0.00 85 1007.7
20150130085049 79 30 9.0 17.0 0.00 0.00 0.00 84 1007.7
20150130084619 79 35 14.0 18.0 0.00 0.00 0.00 84 1007.7
20150130084119 79 46 14.0 18.0 0.00 0.00 0.00 84 1007.7
20150130083619 79 34 16.0 18.0 0.00 0.00 0.00 84 1007.7
20150130083119 79 38 12.0 15.0 0.00 0.00 0.00 85 1007.7
20150130082618 79 31 10.0 16.0 0.00 0.00 0.00 85 1007.6
20150130082118 79 29 13.0 17.0 0.00 0.00 0.00 85 1007.6
20150130081618 79 23 12.0 17.0 0.00 0.00 0.00 85 1007.6
20150130081119 79 33 10.0 15.0 0.00 0.00 0.00 5 1007.7
20150130080618 66 40 13.0 16.0 0.00 0.00 0.00 98 1007.7
20150130080118 66 36 12.0 17.0 0.00 0.00 0.00 100 1007.7
20150130075618 66 36 13.0 18.0 0.00 0.00 0.00 83 1007.6
20150130075118 66 38 16.0 22.0 0.00 0.00 0.00 84 1007.6
20150130074617 79 39 15.0 22.0 0.00 0.00 0.00 85 1007.6
20150130074118 82 42 17.0 24.0 0.00 0.00 0.00 85 1007.6
20150130073619 82 38 18.0 24.0 0.00 0.00 0.00 83 1007.6
20150130073117 83 43 13.0 19.0 0.00 0.00 0.00 83 1007.6
20150130072617 83 42 17.0 19.0 0.00 0.00 0.00 83 1007.3
20150130072117 83 38 14.0 17.0 0.00 0.00 0.00 83 1007.3
20150130071616 80 24 10.0 17.0 0.00 0.00 0.00 83 1007.3
20150130071116 80 40 17.0 17.0 0.00 0.00 0.00 83 1007.2
20150130070617 80 41 15.0 17.0 0.00 0.00 0.00 83 1007.2
20150130070116 81 38 14.0 17.0 0.00 0.00 0.00 83 1007.2
20150130065616 81 36 15.0 16.0 0.00 0.00 0.00 83 1007.1
20150130065116 81 34 15.0 17.0 0.00 0.00 0.00 84 1007.1
20150130064615 80 45 12.0 18.0 0.00 0.00 0.00 83 1007.1
20150130064115 80 40 14.0 18.0 0.00 0.00 0.00 84 1007.1
20150130063615 80 34 12.0 17.0 0.00 0.00 0.00 85 1007.1
20150130063116 80 34 13.0 15.0 0.00 0.00 0.00 84 1007.1
20150130062115 81 32 14.0 16.0 0.00 0.00 0.00 84 1007.1
20150130061615 81 28 11.0 16.0 0.00 0.00 0.00 83 1007.1
20150130061114 81 29 11.0 17.0 0.00 0.00 0.00 83 1007.1
20150130060614 81 36 15.0 17.0 0.00 0.00 0.00 82 1007.1
20150130060114 81 39 12.0 17.0 0.00 0.00 0.00 82 1007.1
20150130055615 81 42 13.0 17.0 0.00 0.00 0.00 82 1007.0
20150130055114 81 38 16.0 17.0 0.00 0.00 0.00 83 1007.0
20150130054115 81 42 13.0 17.0 0.00 0.00 0.00 82 1006.9
20150130053615 81 35 14.0 17.0 0.00 0.00 0.00 82 1006.9
20150130053115 81 38 14.0 15.0 0.00 0.00 0.00 83 1006.9
20150130052614 84 33 10.0 15.0 0.00 0.00 0.00 83 1006.9
20150130052113 84 41 14.0 16.0 0.00 0.00 0.00 82 1006.9
20150130051614 84 36 13.0 16.0 0.00 0.00 0.00 82 1006.9
20150130051113 84 30 13.0 15.0 0.00 0.00 0.00 83 1006.8
20150130050613 83 24 6.0 14.0 0.00 0.00 0.00 83 1006.8
20150130050113 84 27 5.0 16.0 0.00 0.00 0.00 83 1006.8
20150130045613 84 23 9.0 17.0 0.00 0.00 0.00 83 1006.8
20150130045113 84 34 16.0 18.0 0.00 0.00 0.00 83 1006.8
20150130044614 84 53 12.0 18.0 0.00 0.00 0.00 82 1006.8
20150130044112 84 44 17.0 18.0 0.00 0.00 0.00 83 1007.0
20150130043613 84 32 16.0 17.0 0.00 0.00 0.00 83 1007.0
20150130043113 84 42 14.0 17.0 0.00 0.00 0.00 83 1007.0
20150130042612 84 44 15.0 17.0 0.00 0.00 0.00 82 1007.1
20150130042111 84 30 12.0 17.0 0.00 0.00 0.00 83 1007.1
20150130041611 84 32 13.0 17.0 0.00 0.00 0.00 83 1007.1
20150130041111 84 34 13.0 16.0 0.00 0.00 0.00 83 1007.1
20150130040611 84 38 14.0 16.0 0.00 0.00 0.00 82 1007.1
20150130040110 84 40 13.0 16.0 0.00 0.00 0.00 82 1007.1
20150130035610 84 39 13.0 16.0 0.00 0.00 0.00 82 1007.3
20150130035112 84 44 13.0 16.0 0.00 0.00 0.00 81 1007.3
20150130034610 84 28 13.0 16.0 0.00 0.00 0.00 82 1007.3
20150130034111 84 46 14.0 16.0 0.00 0.00 0.00 82 1007.6
20150130033611 84 35 13.0 16.0 0.00 0.00 0.00 82 1007.6
20150130033111 84 40 11.0 17.0 0.00 0.00 0.00 83 1007.6
20150130032611 84 31 13.0 17.0 0.00 0.00 0.00 82 1007.6
20150130032110 84 32 13.0 16.0 0.00 0.00 0.00 83 1007.6
20150130031609 84 39 14.0 17.0 0.00 0.00 0.00 83 1007.6
20150130031110 84 25 11.0 17.0 0.00 0.00 0.00 83 1007.8
20150130030609 84 36 15.0 17.0 0.00 0.00 0.00 84 1007.8
20150130030110 83 40 14.0 18.0 0.00 0.00 0.00 83 1007.8
20150130025612 83 33 13.0 18.0 0.00 0.00 0.00 82 1008.0
20150130025110 84 32 12.0 16.0 0.00 0.00 0.00 82 1008.0
20150130024608 84 40 13.0 15.0 0.00 0.00 0.00 82 1008.0
20150130024109 84 33 13.0 16.0 0.00 0.00 0.00 82 1008.1
20150130023608 84 32 12.0 16.0 0.00 0.00 0.00 82 1008.1
20150130023108 84 34 13.0 16.0 0.00 0.00 0.00 83 1008.1
20150130022607 84 26 8.0 16.0 0.00 0.00 0.00 83 1008.2
20150130022108 85 36 12.0 15.0 0.00 0.00 0.00 82 1008.2
20150130021607 85 33 12.0 15.0 0.00 0.00 0.00 82 1008.2
20150130021139 85 36 15.0 15.0 0.00 0.00 0.00 82 1008.4
20150130020608 85 29 9.0 14.0 0.00 0.00 0.00 82 1008.4
20150130020108 84 26 11.0 14.0 0.00 0.00 0.00 82 1008.4
20150130015607 84 23 9.0 15.0 0.00 0.00 0.00 83 1008.7
20150130015107 84 36 11.0 17.0 0.00 0.00 0.00 82 1008.7
20150130014607 84 32 12.0 17.0 0.00 0.00 0.00 81 1008.7
20150130014108 84 32 11.0 16.0 0.00 0.00 0.00 81 1008.7
20150130013607 84 48 11.0 15.0 0.00 0.00 0.00 82 1008.7
20150130013108 84 36 8.0 15.0 0.00 0.00 0.00 82 1008.7
20150130012607 84 39 12.0 16.0 0.00 0.00 0.00 82 1008.9
20150130012107 84 28 10.0 16.0 0.00 0.00 0.00 83 1008.9
20150130011606 84 40 13.0 17.0 0.00 0.00 0.00 82 1008.9
20150130011106 84 26 11.0 17.0 0.00 0.00 0.00 82 1009.1
20150130010606 84 39 13.0 16.0 0.00 0.00 0.00 82 1009.1
20150130010106 84 38 12.0 16.0 0.00 0.00 0.00 82 1009.1
20150130005606 84 40 14.0 16.0 0.00 0.00 0.00 81 1009.1
20150130005106 84 34 12.0 15.0 0.00 0.00 0.00 82 1009.1
20150130004606 84 31 11.0 15.0 0.00 0.00 0.00 83 1009.1
20150130004106 84 27 15.0 16.0 0.00 0.00 0.00 82 1009.2
20150130003605 84 36 12.0 16.0 0.00 0.00 0.00 83 1009.2
20150130003105 84 48 13.0 16.0 0.00 0.00 0.00 83 1009.2
20150130002605 84 31 12.0 16.0 0.00 0.00 0.00 83 1009.2
20150130002104 83 46 9.0 16.0 0.00 0.00 0.00 82 1009.2
20150130001606 84 36 14.0 18.0 0.00 0.00 0.00 83 1009.2
20150130001104 83 27 12.0 18.0 0.00 0.00 0.00 84 1009.2
20150130000604 83 39 14.0 17.0 0.00 0.00 0.00 83 1009.2
20150130000103 83 36 14.0 17.0 0.00 0.00 0.00 84 1009.2
20150129235604 83 38 13.0 14.0 0.00 0.00 0.00 84 1009.2
20150129235104 83 32 12.0 16.0 0.00 0.00 0.00 84 1009.2
20150129234603 83 31 10.0 17.0 0.00 0.00 0.00 85 1009.2
20150129234103 83 34 15.0 17.0 0.00 0.00 0.00 84 1009.1
20150129233603 83 32 12.0 16.0 0.00 0.00 0.00 84 1009.1
20150129233103 83 44 12.0 16.0 0.00 0.00 0.00 84 1009.1
20150129232604 83 39 10.0 15.0 0.00 0.00 0.00 85 1009.1
20150129232102 82 37 12.0 16.0 0.00 0.00 0.00 86 1009.1
20150129231602 82 37 13.0 16.0 0.00 0.00 0.00 85 1009.1
20150129231102 83 17 10.0 14.0 0.00 0.01 0.00 84 1009.1
20150129230602 83 19 5.0 7.0 0.00 0.01 0.00 85 1009.1
20150129230102 83 17 3.0 9.0 0.00 0.01 0.00 86 1009.1
20150129225601 82 27 4.0 9.0 0.00 0.01 0.00 86 1008.7
20150129225101 82 16 2.0 7.0 0.00 0.01 0.00 87 1008.7
20150129224601 82 26 4.0 7.0 0.00 0.01 0.00 87 1008.7
20150129224101 82 13 5.0 7.0 0.00 0.01 0.00 87 1008.6
20150129223601 82 31 3.0 5.0 0.00 0.01 0.00 88 1008.6
20150129223100 81 49 0.0 0.0 0.00 0.01 0.00 89 1008.6
20150129222601 81 12 0.0 0.0 0.00 0.01 0.00 89 1008.6
20150129222101 80 5 0.0 5.0 0.00 0.01 0.00 89 1008.6
20150129221601 80 21 0.0 5.0 0.00 0.01 0.00 90 1008.6
20150129221101 80 11 1.0 6.0 0.00 0.01 0.00 90 1008.6
20150129220600 79 23 3.0 6.0 0.00 0.01 0.00 91 1008.6
20150129220100 78 37 3.0 3.0 0.00 0.01 0.00 91 1008.6
20150129215559 78 38 0.0 3.0 0.00 0.01 0.00 91 1008.5
20150129215100 77 346 0.0 2.0 0.00 0.01 0.00 91 1008.5
20150129214600 77 346 0.0 2.0 0.00 0.01 0.00 91 1008.5
20150129214059 77 346 0.0 2.0 0.00 0.01 0.00 92 1008.2
20150129213559 76 300 1.0 2.0 0.00 0.01 0.00 92 1008.2
20150129213059 76 300 0.0 2.0 0.00 0.01 0.00 92 1008.2
20150129212559 76 300 0.0 2.0 0.00 0.01 0.00 92 1008.2
20150129212058 76 300 0.0 3.0 0.00 0.01 0.00 92 1008.2
20150129211559 75 302 2.0 4.0 0.00 0.01 0.00 92 1008.2
20150129211059 75 306 0.0 4.0 0.00 0.01 0.00 92 1008.1
20150129210558 75 294 0.0 2.0 0.00 0.01 0.00 92 1008.1
20150129210058 75 240 0.0 0.0 0.00 0.01 0.00 92 1008.1
20150129205558 74 240 0.0 0.0 0.00 0.01 0.00 92 1007.9
20150129205057 74 240 0.0 0.0 0.00 0.01 0.00 92 1007.9
20150129204557 74 240 0.0 0.0 0.00 0.01 0.00 92 1007.9
20150129204058 74 240 0.0 0.0 0.00 0.01 0.00 92 1007.7
20150129203557 74 240 0.0 0.0 0.00 0.01 0.00 92 1007.7
20150129203057 74 240 0.0 0.0 0.00 0.01 0.00 92 1007.7
20150129202557 74 240 0.0 0.0 0.00 0.01 0.00 92 1007.6
20150129202057 74 240 0.0 0.0 0.00 0.01 0.00 92 1007.6
20150129201557 74 240 0.0 0.0 0.00 0.01 0.00 92 1007.6
20150129201056 74 240 0.0 0.0 0.00 0.01 0.00 92 1007.5
20150129200556 74 240 0.0 0.0 0.00 0.01 0.00 92 1007.5
20150129200056 74 240 0.0 0.0 0.00 0.01 0.00 92 1007.5
20150129195556 74 240 0.0 0.0 0.00 0.01 0.00 92 1007.3
20150129195056 74 240 0.0 0.0 0.00 0.01 0.00 92 1007.3
20150129194556 74 240 0.0 0.0 0.00 0.01 0.00 92 1007.3
20150129194056 74 240 0.0 0.0 0.00 0.01 0.00 92 1007.3
20150129193556 74 240 0.0 0.0 0.00 0.01 0.00 92 1007.3
20150129193055 74 240 0.0 0.0 0.00 0.01 0.00 92 1007.3
20150129192555 74 240 0.0 0.0 0.00 0.01 0.00 92 1007.1
20150129192056 74 240 0.0 0.0 0.00 0.01 0.00 92 1007.1
20150129191555 74 240 0.0 0.0 0.00 0.01 0.00 92 1007.1
20150129191054 74 240 0.0 0.0 0.00 0.01 0.00 92 1007.1
20150129190555 74 240 0.0 0.0 0.00 0.01 0.00 92 1007.1
20150129190054 74 240 0.0 0.0 0.00 0.02 0.00 92 1007.1
20150129185554 74 240 0.0 0.0 0.00 0.03 0.00 92 1007.0
20150129185054 74 240 0.0 2.0 0.00 0.03 0.00 92 1007.0
20150129184554 74 240 0.0 2.0 0.00 0.03 0.00 92 1007.0
20150129184053 74 240 0.0 2.0 0.00 0.03 0.00 92 1006.9
20150129183553 74 240 1.0 1.0 0.00 0.04 0.00 92 1006.9
20150129183053 74 240 0.0 1.0 0.00 0.04 0.00 92 1006.9
20150129182554 74 240 0.0 1.0 0.00 0.04 0.00 92 1006.9
20150129182053 74 240 0.0 1.0 0.00 0.04 0.00 92 1006.9
20150129181553 74 240 0.0 0.0 0.00 0.04 0.00 92 1006.9
20150129181052 74 240 0.0 0.0 0.00 0.04 0.00 92 1006.9
20150129180552 74 240 0.0 1.0 0.00 0.04 0.00 92 1006.9
20150129180052 74 240 0.0 1.0 0.00 0.04 0.00 92 1006.9
20150129175552 74 240 0.0 1.0 0.00 0.04 0.00 92 1006.8
20150129175052 74 240 0.0 1.0 0.00 0.04 0.00 92 1006.8
20150129174553 74 240 0.0 0.0 0.00 0.04 0.00 92 1006.8
20150129174052 74 240 0.0 2.0 0.00 0.04 0.00 92 1006.9
20150129173552 74 240 0.0 2.0 0.00 0.04 0.00 92 1006.9
20150129173052 74 240 1.0 1.0 0.00 0.04 0.00 92 1006.9
20150129172552 74 240 0.0 1.0 0.00 0.04 0.00 92 1007.0
20150129172051 74 240 0.0 1.0 0.00 0.04 0.00 92 1007.0
20150129171552 74 240 0.0 1.0 0.00 0.04 0.00 92 1007.0
20150129171051 74 240 0.0 1.0 0.00 0.04 0.00 92 1007.1
20150129170551 74 240 0.0 0.0 0.00 0.04 0.00 92 1007.1
20150129170051 74 240 0.0 0.0 0.00 0.04 0.00 92 1007.1
20150129165550 74 240 0.0 0.0 0.00 0.04 0.00 92 1007.4
20150129165051 74 240 0.0 1.0 0.00 0.04 0.00 92 1007.4
20150129164550 74 240 0.0 1.0 0.00 0.04 0.00 92 1007.4
20150129164050 74 240 0.0 0.0 0.00 0.04 0.00 92 1007.6
20150129163550 74 240 0.0 0.0 0.00 0.04 0.00 92 1007.6
20150129163050 74 240 0.0 0.0 0.00 0.04 0.00 92 1007.6
20150129162620 74 240 0.0 0.0 0.00 0.04 0.00 92 1007.6
20150129162049 74 240 0.0 0.0 0.00 0.04 0.00 92 1007.6
20150129161549 74 240 0.0 0.0 0.00 0.04 0.00 92 1007.6
20150129161050 74 240 0.0 0.0 0.00 0.04 0.00 92 1007.7
20150129160549 74 240 0.0 0.0 0.00 0.04 0.00 92 1007.7
20150129160049 74 240 0.0 0.0 0.00 0.04 0.00 92 1007.7
20150129155548 74 240 0.0 1.0 0.00 0.04 0.00 91 1007.8
20150129155048 74 240 0.0 1.0 0.00 0.04 0.00 92 1007.8
20150129154548 74 240 0.0 0.0 0.00 0.04 0.00 92 1007.8
20150129154048 74 240 0.0 1.0 0.00 0.04 0.00 92 1008.0
20150129153548 74 240 0.0 1.0 0.00 0.04 0.00 92 1008.0
20150129153118 74 240 0.0 0.0 0.00 0.04 0.00 92 1008.0
20150129152548 74 240 0.0 0.0 0.00 0.04 0.00 92 1008.1
20150129152048 74 240 0.0 0.0 0.00 0.04 0.00 92 1008.1
20150129151547 74 240 0.0 0.0 0.00 0.04 0.00 92 1008.1
20150129151047 74 240 0.0 1.0 0.00 0.04 0.00 92 1008.1
20150129150617 74 240 0.0 1.0 0.00 0.04 0.00 92 1008.1
20150129150117 74 240 0.0 1.0 0.00 0.05 0.00 92 1008.1
20150129145617 74 240 0.0 1.0 0.00 0.06 0.00 92 1008.2
20150129145118 74 240 0.0 1.0 0.00 0.08 0.00 92 1008.2
20150129144617 74 240 0.0 1.0 0.00 0.08 0.00 91 1008.2
20150129144116 74 240 0.0 1.0 0.00 0.08 0.00 91 1008.4
20150129143616 74 240 0.0 1.0 0.00 0.08 0.00 91 1008.4
20150129143116 74 240 0.0 1.0 0.00 0.08 0.00 91 1008.4
20150129142616 74 240 0.0 1.0 0.00 0.08 0.00 91 1008.5
20150129142116 74 240 0.0 0.0 0.00 0.08 0.00 91 1008.5
20150129141616 74 240 0.0 1.0 0.00 0.08 0.00 91 1008.5
20150129141116 75 240 0.0 1.0 0.00 0.08 0.00 91 1008.7
20150129140615 75 240 0.0 1.0 0.00 0.08 0.00 91 1008.7
20150129140115 75 240 0.0 1.0 0.00 0.08 0.00 91 1008.7
20150129135615 75 240 0.0 0.0 0.00 0.08 0.08 91 1008.7
20150129135116 75 240 0.0 0.0 0.00 0.08 0.08 91 1008.7
20150129134615 75 240 0.0 0.0 0.00 0.08 0.08 91 1008.7
20150129134115 75 240 0.0 0.0 0.00 0.08 0.08 91 1008.8
20150129133614 75 240 0.0 1.0 0.00 0.08 0.08 91 1008.8
20150129133114 75 240 0.0 1.0 0.00 0.08 0.08 91 1008.8
20150129132614 75 240 0.0 0.0 0.00 0.08 0.08 91 1009.1
20150129132114 75 240 0.0 0.0 0.00 0.08 0.08 91 1009.1
20150129131614 75 240 0.0 1.0 0.00 0.08 0.08 91 1009.1
20150129131114 75 240 0.0 1.0 0.00 0.08 0.08 91 1009.1
20150129130613 75 240 0.0 1.0 0.00 0.08 0.08 91 1009.1
20150129130114 75 240 0.0 1.0 0.00 0.08 0.08 91 1009.1
20150129125613 75 240 0.0 1.0 0.00 0.08 0.08 91 1009.1
20150129125114 75 240 0.0 2.0 0.00 0.08 0.08 91 1009.1
20150129124613 75 240 0.0 2.0 0.00 0.08 0.08 91 1009.1
20150129124113 75 240 0.0 1.0 0.00 0.08 0.08 91 1009.2
20150129123613 75 240 0.0 1.0 0.00 0.08 0.08 91 1009.2
20150129123112 75 240 0.0 1.0 0.00 0.08 0.08 91 1009.2
20150129122612 75 240 0.0 1.0 0.00 0.08 0.08 91 1009.2